Wetterdaten: Samstag, 22.03.2014
Datum Zeit Temperatur Luftfeuchte Luftdruck Regen Wind Richtung Richtung Taupunkt Windchill Windben
22.03.2014 00:00 5,3 C 72 % 1014,1 hPa 0,0 l/m 0,0 km/h (0 Bft) SW 225 0,7 C 16,1 C 0,0 km/h (0 Bft)
22.03.2014 00:05 5,2 C 72 % 1014,1 hPa 0,0 l/m 0,0 km/h (0 Bft) SW 225 0,6 C 16,1 C 0,0 km/h (0 Bft)
22.03.2014 00:10 4,5 C 72 % 1014,1 hPa 0,0 l/m 0,0 km/h (0 Bft) SW 225 -0,1 C 16,1 C 0,0 km/h (0 Bft)
22.03.2014 00:15 3,9 C 73 % 1014,1 hPa 0,0 l/m 0,0 km/h (0 Bft) SW 225 -0,5 C 16,1 C 0,0 km/h (0 Bft)
22.03.2014 00:20 4,0 C 73 % 1014,1 hPa 0,0 l/m 0,0 km/h (0 Bft) SW 225 -0,4 C 16,1 C 0,0 km/h (0 Bft)
22.03.2014 00:25 4,0 C 74 % 1013,9 hPa 0,0 l/m 0,0 km/h (0 Bft) SW 225 -0,2 C 16,1 C 0,0 km/h (0 Bft)
22.03.2014 00:30 4,6 C 73 % 1013,9 hPa 0,0 l/m 0,0 km/h (0 Bft) SW 225 0,2 C 16,1 C 0,0 km/h (0 Bft)
22.03.2014 00:35 4,4 C 73 % 1013,9 hPa 0,0 l/m 0,0 km/h (0 Bft) SW 225 -0,0 C 16,1 C 0,0 km/h (0 Bft)
22.03.2014 00:40 3,6 C 72 % 1013,9 hPa 0,0 l/m 0,0 km/h (0 Bft) SW 225 -1,0 C 16,1 C 0,0 km/h (0 Bft)
22.03.2014 00:45 3,3 C 73 % 1013,6 hPa 0,0 l/m 0,0 km/h (0 Bft) SW 225 -1,1 C 16,1 C 0,0 km/h (0 Bft)
22.03.2014 00:50 3,2 C 73 % 1013,6 hPa 0,0 l/m 0,0 km/h (0 Bft) SW 225 -1,2 C 16,1 C 0,0 km/h (0 Bft)
22.03.2014 00:55 3,2 C 74 % 1013,6 hPa 0,0 l/m 0,0 km/h (0 Bft) SW 225 -1,0 C 16,1 C 0,0 km/h (0 Bft)
22.03.2014 01:00 3,0 C 74 % 1013,6 hPa 0,0 l/m 0,0 km/h (0 Bft) SW 225 -1,2 C 16,1 C 0,0 km/h (0 Bft)
22.03.2014 01:05 3,0 C 74 % 1013,4 hPa 0,0 l/m 0,0 km/h (0 Bft) SW 225 -1,2 C 16,1 C 0,0 km/h (0 Bft)
22.03.2014 01:10 3,1 C 75 % 1013,4 hPa 0,0 l/m 0,0 km/h (0 Bft) SW 225 -0,9 C 16,1 C 0,0 km/h (0 Bft)
22.03.2014 01:15 2,8 C 75 % 1013,4 hPa 0,0 l/m 0,0 km/h (0 Bft) SW 225 -1,2 C 16,1 C 0,0 km/h (0 Bft)
22.03.2014 01:20 2,5 C 76 % 1013,4 hPa 0,0 l/m 0,0 km/h (0 Bft) SW 225 -1,3 C 16,1 C 0,0 km/h (0 Bft)
22.03.2014 01:25 2,6 C 76 % 1013,2 hPa 0,0 l/m 0,0 km/h (0 Bft) SW 225 -1,2 C 16,1 C 0,0 km/h (0 Bft)
22.03.2014 01:30 2,1 C 76 % 1013,2 hPa 0,0 l/m 0,0 km/h (0 Bft) SW 225 -1,7 C 16,1 C 0,0 km/h (0 Bft)
22.03.2014 01:35 2,1 C 76 % 1013,2 hPa 0,0 l/m 0,0 km/h (0 Bft) SW 225 -1,7 C 16,1 C 0,0 km/h (0 Bft)
22.03.2014 01:40 2,1 C 77 % 1013,2 hPa 0,0 l/m 0,0 km/h (0 Bft) SW 225 -1,5 C 16,1 C 0,0 km/h (0 Bft)
22.03.2014 01:45 2,0 C 77 % 1013,0 hPa 0,0 l/m 0,0 km/h (0 Bft) SW 225 -1,6 C 16,1 C 0,0 km/h (0 Bft)
22.03.2014 01:50 3,3 C 78 % 1013,0 hPa 0,0 l/m 0,0 km/h (0 Bft) SW 225 -0,2 C 16,1 C 0,0 km/h (0 Bft)
22.03.2014 01:53 3,3 C 78 % 1013,0 hPa 0,0 l/m 0,0 km/h (0 Bft) SW 225 -0,2 C 16,1 C 0,0 km/h (0 Bft)
22.03.2014 01:55 2,7 C 78 % 1013,0 hPa 0,0 l/m 0,0 km/h (0 Bft) SW 225 -0,7 C 16,1 C 0,0 km/h (0 Bft)
22.03.2014 02:00 2,8 C 78 % 1013,0 hPa 0,0 l/m 0,0 km/h (0 Bft) SW 225 -0,6 C 16,1 C 0,0 km/h (0 Bft)
22.03.2014 02:05 2,4 C 78 % 1012,8 hPa 0,0 l/m 0,0 km/h (0 Bft) SW 225 -1,0 C 16,1 C 0,0 km/h (0 Bft)
22.03.2014 02:10 2,0 C 78 % 1012,8 hPa 0,0 l/m 0,0 km/h (0 Bft) SW 225 -1,4 C 16,1 C 0,0 km/h (0 Bft)
22.03.2014 02:15 2,1 C 79 % 1012,8 hPa 0,0 l/m 0,0 km/h (0 Bft) SW 225 -1,2 C 16,1 C 0,0 km/h (0 Bft)
22.03.2014 02:20 1,8 C 79 % 1012,8 hPa 0,0 l/m 0,0 km/h (0 Bft) SW 225 -1,4 C 16,1 C 0,0 km/h (0 Bft)
22.03.2014 02:25 2,0 C 79 % 1012,6 hPa 0,0 l/m 0,0 km/h (0 Bft) SW 225 -1,2 C 16,1 C 0,0 km/h (0 Bft)
22.03.2014 02:30 2,3 C 80 % 1012,6 hPa 0,0 l/m 0,0 km/h (0 Bft) SW 225 -0,8 C 16,1 C 0,0 km/h (0 Bft)
22.03.2014 02:35 2,4 C 80 % 1012,6 hPa 0,0 l/m 0,0 km/h (0 Bft) SW 225 -0,7 C 16,1 C 0,0 km/h (0 Bft)
22.03.2014 02:40 2,1 C 79 % 1012,6 hPa 0,0 l/m 0,0 km/h (0 Bft) SW 225 -1,2 C 16,1 C 0,0 km/h (0 Bft)
22.03.2014 02:45 2,1 C 80 % 1012,5 hPa 0,0 l/m 0,0 km/h (0 Bft) SW 225 -1,0 C 16,1 C 0,0 km/h (0 Bft)
22.03.2014 02:50 2,8 C 81 % 1012,5 hPa 0,0 l/m 0,0 km/h (0 Bft) SW 225 -0,1 C 16,1 C 0,0 km/h (0 Bft)
22.03.2014 02:55 3,3 C 80 % 1012,5 hPa 0,0 l/m 0,0 km/h (0 Bft) SW 225 0,2 C 16,1 C 0,0 km/h (0 Bft)
22.03.2014 03:00 2,8 C 79 % 1012,5 hPa 0,0 l/m 0,0 km/h (0 Bft) SW 225 -0,5 C 16,1 C 0,0 km/h (0 Bft)
22.03.2014 03:05 2,9 C 80 % 1012,4 hPa 0,0 l/m 0,0 km/h (0 Bft) SW 225 -0,2 C 16,1 C 0,0 km/h (0 Bft)
22.03.2014 03:10 2,9 C 79 % 1012,4 hPa 0,0 l/m 0,0 km/h (0 Bft) SW 225 -0,4 C 16,1 C 0,0 km/h (0 Bft)
22.03.2014 03:15 2,8 C 79 % 1012,4 hPa 0,0 l/m 0,0 km/h (0 Bft) SW 225 -0,5 C 16,1 C 0,0 km/h (0 Bft)
22.03.2014 03:20 2,6 C 79 % 1012,4 hPa 0,0 l/m 0,0 km/h (0 Bft) SW 225 -0,7 C 16,1 C 0,0 km/h (0 Bft)
22.03.2014 03:25 2,8 C 79 % 1012,1 hPa 0,0 l/m 0,0 km/h (0 Bft) SW 225 -0,5 C 16,1 C 0,0 km/h (0 Bft)
22.03.2014 03:30 2,2 C 79 % 1012,1 hPa 0,0 l/m 0,0 km/h (0 Bft) SW 225 -1,1 C 16,1 C 0,0 km/h (0 Bft)
22.03.2014 03:35 2,7 C 79 % 1012,1 hPa 0,0 l/m 0,0 km/h (0 Bft) SW 225 -0,6 C 16,1 C 0,0 km/h (0 Bft)
22.03.2014 03:40 1,7 C 79 % 1012,1 hPa 0,0 l/m 0,0 km/h (0 Bft) SW 225 -1,5 C 16,1 C 0,0 km/h (0 Bft)
22.03.2014 03:45 1,5 C 79 % 1011,7 hPa 0,0 l/m 0,0 km/h (0 Bft) SW 225 -1,7 C 16,1 C 0,0 km/h (0 Bft)
22.03.2014 03:50 1,5 C 79 % 1011,7 hPa 0,0 l/m 0,0 km/h (0 Bft) SW 225 -1,7 C 16,1 C 0,0 km/h (0 Bft)
22.03.2014 03:55 1,1 C 79 % 1011,7 hPa 0,0 l/m 0,0 km/h (0 Bft) SW 225 -2,1 C 16,1 C 0,0 km/h (0 Bft)
22.03.2014 04:00 1,6 C 80 % 1011,7 hPa 0,0 l/m 0,0 km/h (0 Bft) SW 225 -1,5 C 16,1 C 0,0 km/h (0 Bft)
22.03.2014 04:05 1,4 C 80 % 1011,4 hPa 0,0 l/m 0,0 km/h (0 Bft) SW 225 -1,7 C 16,1 C 0,0 km/h (0 Bft)
22.03.2014 04:10 1,5 C 80 % 1011,4 hPa 0,0 l/m 0,0 km/h (0 Bft) SW 225 -1,6 C 16,1 C 0,0 km/h (0 Bft)
22.03.2014 04:15 1,5 C 81 % 1011,4 hPa 0,0 l/m 0,0 km/h (0 Bft) SW 225 -1,4 C 16,1 C 0,0 km/h (0 Bft)
22.03.2014 04:20 1,5 C 81 % 1011,4 hPa 0,0 l/m 0,0 km/h (0 Bft) SW 225 -1,4 C 16,1 C 0,0 km/h (0 Bft)
22.03.2014 04:25 1,4 C 80 % 1011,1 hPa 0,0 l/m 0,0 km/h (0 Bft) SW 225 -1,7 C 16,1 C 0,0 km/h (0 Bft)
22.03.2014 04:30 1,2 C 80 % 1011,1 hPa 0,0 l/m 0,0 km/h (0 Bft) SW 225 -1,9 C 16,1 C 0,0 km/h (0 Bft)
22.03.2014 04:35 1,4 C 81 % 1011,1 hPa 0,0 l/m 0,0 km/h (0 Bft) SW 225 -1,5 C 16,1 C 0,0 km/h (0 Bft)
22.03.2014 04:40 1,1 C 80 % 1011,1 hPa 0,0 l/m 0,0 km/h (0 Bft) SW 225 -2,0 C 16,1 C 0,0 km/h (0 Bft)
22.03.2014 04:45 1,2 C 81 % 1010,8 hPa 0,0 l/m 0,0 km/h (0 Bft) SW 225 -1,7 C 16,1 C 0,0 km/h (0 Bft)
22.03.2014 04:50 1,0 C 81 % 1010,8 hPa 0,0 l/m 0,0 km/h (0 Bft) SW 225 -1,9 C 16,1 C 0,0 km/h (0 Bft)
22.03.2014 04:55 1,2 C 82 % 1010,8 hPa 0,0 l/m 0,0 km/h (0 Bft) SW 225 -1,5 C 16,1 C 0,0 km/h (0 Bft)
22.03.2014 05:00 1,0 C 81 % 1010,8 hPa 0,0 l/m 0,0 km/h (0 Bft) SW 225 -1,9 C 16,1 C 0,0 km/h (0 Bft)
22.03.2014 05:05 1,4 C 82 % 1010,8 hPa 0,0 l/m 0,0 km/h (0 Bft) SW 225 -1,3 C 16,1 C 0,0 km/h (0 Bft)
22.03.2014 05:10 1,5 C 82 % 1010,8 hPa 0,0 l/m 0,0 km/h (0 Bft) SW 225 -1,2 C 16,1 C 0,0 km/h (0 Bft)
22.03.2014 05:15 1,7 C 82 % 1010,8 hPa 0,0 l/m 0,0 km/h (0 Bft) SW 225 -1,0 C 16,1 C 0,0 km/h (0 Bft)
22.03.2014 05:20 1,9 C 82 % 1010,8 hPa 0,0 l/m 0,0 km/h (0 Bft) SW 225 -0,8 C 16,1 C 0,0 km/h (0 Bft)
22.03.2014 05:25 1,7 C 82 % 1010,4 hPa 0,0 l/m 0,0 km/h (0 Bft) SW 225 -1,0 C 16,1 C 0,0 km/h (0 Bft)
22.03.2014 05:30 2,3 C 82 % 1010,4 hPa 0,0 l/m 0,0 km/h (0 Bft) SW 225 -0,4 C 16,1 C 0,0 km/h (0 Bft)
22.03.2014 05:35 2,0 C 82 % 1010,4 hPa 0,0 l/m 0,0 km/h (0 Bft) SW 225 -0,7 C 16,1 C 0,0 km/h (0 Bft)
22.03.2014 05:40 1,7 C 81 % 1010,4 hPa 0,0 l/m 0,0 km/h (0 Bft) SW 225 -1,2 C 16,1 C 0,0 km/h (0 Bft)
22.03.2014 05:45 1,9 C 82 % 1010,4 hPa 0,0 l/m 0,0 km/h (0 Bft) SW 225 -0,8 C 16,1 C 0,0 km/h (0 Bft)
22.03.2014 05:50 1,9 C 82 % 1010,4 hPa 0,0 l/m 0,0 km/h (0 Bft) SW 225 -0,8 C 16,1 C 0,0 km/h (0 Bft)
22.03.2014 05:55 1,8 C 82 % 1010,4 hPa 0,0 l/m 0,0 km/h (0 Bft) SW 225 -0,9 C 16,1 C 0,0 km/h (0 Bft)
22.03.2014 06:00 3,1 C 81 % 1010,4 hPa 0,0 l/m 0,0 km/h (0 Bft) SW 225 0,2 C 16,1 C 0,0 km/h (0 Bft)
22.03.2014 06:05 2,8 C 81 % 1010,4 hPa 0,0 l/m 0,0 km/h (0 Bft) SW 225 -0,1 C 16,1 C 0,0 km/h (0 Bft)
22.03.2014 06:10 2,0 C 79 % 1010,4 hPa 0,0 l/m 0,0 km/h (0 Bft) SW 225 -1,2 C 16,1 C 0,0 km/h (0 Bft)
22.03.2014 06:15 2,0 C 80 % 1010,4 hPa 0,0 l/m 0,0 km/h (0 Bft) SW 225 -1,1 C 16,1 C 0,0 km/h (0 Bft)
22.03.2014 06:20 2,7 C 81 % 1010,4 hPa 0,0 l/m 0,0 km/h (0 Bft) SW 225 -0,2 C 16,1 C 0,0 km/h (0 Bft)
22.03.2014 06:25 2,3 C 80 % 1010,1 hPa 0,0 l/m 0,0 km/h (0 Bft) SW 225 -0,8 C 16,1 C 0,0 km/h (0 Bft)
22.03.2014 06:30 2,0 C 79 % 1010,1 hPa 0,0 l/m 0,0 km/h (0 Bft) SW 225 -1,2 C 16,1 C 0,0 km/h (0 Bft)
22.03.2014 06:35 2,1 C 80 % 1010,1 hPa 0,0 l/m 0,0 km/h (0 Bft) SW 225 -1,0 C 16,1 C 0,0 km/h (0 Bft)
22.03.2014 06:40 2,1 C 80 % 1010,1 hPa 0,0 l/m 0,0 km/h (0 Bft) SW 225 -1,0 C 16,1 C 0,0 km/h (0 Bft)
22.03.2014 06:45 2,3 C 80 % 1010,1 hPa 0,0 l/m 0,0 km/h (0 Bft) SW 225 -0,8 C 16,1 C 0,0 km/h (0 Bft)
22.03.2014 06:50 2,6 C 79 % 1010,1 hPa 0,0 l/m 0,0 km/h (0 Bft) SW 225 -0,7 C 16,1 C 0,0 km/h (0 Bft)
22.03.2014 06:53 2,6 C 79 % 1010,1 hPa 0,0 l/m 0,0 km/h (0 Bft) SW 225 -0,7 C 16,1 C 0,0 km/h (0 Bft)
22.03.2014 06:55 2,9 C 79 % 1010,1 hPa 0,0 l/m 0,0 km/h (0 Bft) SW 225 -0,4 C 16,1 C 0,0 km/h (0 Bft)
22.03.2014 07:00 3,3 C 79 % 1010,1 hPa 0,0 l/m 0,0 km/h (0 Bft) SW 225 0,0 C 16,1 C 0,0 km/h (0 Bft)
22.03.2014 07:05 3,8 C 79 % 1010,4 hPa 0,0 l/m 0,0 km/h (0 Bft) SW 225 0,5 C 16,1 C 0,0 km/h (0 Bft)
22.03.2014 07:10 4,1 C 78 % 1010,4 hPa 0,0 l/m 0,0 km/h (0 Bft) SW 225 0,6 C 16,1 C 0,0 km/h (0 Bft)
22.03.2014 07:15 4,2 C 78 % 1010,4 hPa 0,0 l/m 0,0 km/h (0 Bft) SW 225 0,7 C 16,1 C 0,0 km/h (0 Bft)
22.03.2014 07:20 4,5 C 77 % 1010,4 hPa 0,0 l/m 0,0 km/h (0 Bft) SW 225 0,8 C 16,1 C 0,0 km/h (0 Bft)
22.03.2014 07:25 4,7 C 77 % 1009,9 hPa 0,0 l/m 0,0 km/h (0 Bft) SW 225 1,0 C 16,1 C 0,0 km/h (0 Bft)
22.03.2014 07:30 5,1 C 77 % 1009,9 hPa 0,0 l/m 0,0 km/h (0 Bft) SW 225 1,4 C 16,1 C 0,0 km/h (0 Bft)
22.03.2014 07:35 5,3 C 76 % 1009,9 hPa 0,0 l/m 0,0 km/h (0 Bft) SW 225 1,4 C 16,1 C 0,0 km/h (0 Bft)
22.03.2014 07:40 5,4 C 76 % 1009,9 hPa 0,0 l/m 0,0 km/h (0 Bft) SW 225 1,5 C 16,1 C 0,0 km/h (0 Bft)
22.03.2014 07:45 5,7 C 76 % 1009,7 hPa 0,0 l/m 0,0 km/h (0 Bft) SW 225 1,8 C 16,1 C 0,0 km/h (0 Bft)
22.03.2014 07:50 5,9 C 76 % 1009,7 hPa 0,0 l/m 0,0 km/h (0 Bft) SW 225 2,0 C 16,1 C 0,0 km/h (0 Bft)
22.03.2014 07:55 6,0 C 74 % 1009,7 hPa 0,0 l/m 0,0 km/h (0 Bft) SW 225 1,7 C 16,1 C 0,0 km/h (0 Bft)
22.03.2014 08:00 6,2 C 74 % 1009,7 hPa 0,0 l/m 0,0 km/h (0 Bft) SW 225 1,9 C 16,1 C 0,0 km/h (0 Bft)
22.03.2014 08:05 6,5 C 74 % 1009,8 hPa 0,0 l/m 0,0 km/h (0 Bft) SW 225 2,2 C 16,1 C 0,0 km/h (0 Bft)
22.03.2014 08:10 6,9 C 74 % 1009,8 hPa 0,0 l/m 0,0 km/h (0 Bft) SW 225 2,6 C 16,1 C 0,0 km/h (0 Bft)
22.03.2014 08:15 7,4 C 73 % 1009,8 hPa 0,0 l/m 0,0 km/h (0 Bft) SW 225 2,9 C 16,1 C 0,0 km/h (0 Bft)
22.03.2014 08:20 8,1 C 73 % 1009,8 hPa 0,0 l/m 0,0 km/h (0 Bft) SW 225 3,6 C 16,1 C 0,0 km/h (0 Bft)
22.03.2014 08:25 8,5 C 72 % 1010,1 hPa 0,0 l/m 0,0 km/h (0 Bft) SW 225 3,7 C 16,1 C 0,0 km/h (0 Bft)
22.03.2014 08:30 8,7 C 71 % 1010,1 hPa 0,0 l/m 0,0 km/h (0 Bft) SW 225 3,7 C 16,1 C 0,0 km/h (0 Bft)
22.03.2014 08:35 8,8 C 70 % 1010,1 hPa 0,0 l/m 0,0 km/h (0 Bft) SW 225 3,6 C 16,1 C 0,0 km/h (0 Bft)
22.03.2014 08:40 10,3 C 69 % 1010,1 hPa 0,0 l/m 0,0 km/h (0 Bft) SW 225 4,9 C 16,1 C 0,0 km/h (0 Bft)
22.03.2014 08:45 10,7 C 68 % 1009,9 hPa 0,0 l/m 0,0 km/h (0 Bft) SW 225 5,0 C 16,1 C 0,0 km/h (0 Bft)
22.03.2014 08:50 10,9 C 65 % 1009,9 hPa 0,0 l/m 0,0 km/h (0 Bft) SW 225 4,6 C 16,1 C 0,0 km/h (0 Bft)
22.03.2014 08:55 11,0 C 65 % 1009,9 hPa 0,0 l/m 0,0 km/h (0 Bft) SW 225 4,7 C 16,1 C 0,0 km/h (0 Bft)
22.03.2014 09:00 10,9 C 59 % 1009,9 hPa 0,0 l/m 0,0 km/h (0 Bft) SW 225 3,2 C 16,1 C 0,0 km/h (0 Bft)
22.03.2014 09:05 11,0 C 60 % 1009,8 hPa 0,0 l/m 0,0 km/h (0 Bft) SW 225 3,5 C 16,1 C 0,0 km/h (0 Bft)
22.03.2014 09:10 10,8 C 59 % 1009,8 hPa 0,0 l/m 0,0 km/h (0 Bft) SW 225 3,1 C 16,1 C 0,0 km/h (0 Bft)
22.03.2014 09:15 10,7 C 59 % 1009,8 hPa 0,0 l/m 0,0 km/h (0 Bft) SW 225 3,0 C 16,1 C 0,0 km/h (0 Bft)
22.03.2014 09:20 10,3 C 60 % 1009,8 hPa 0,0 l/m 0,0 km/h (0 Bft) SW 225 2,9 C 16,1 C 0,0 km/h (0 Bft)
22.03.2014 09:25 10,5 C 61 % 1009,3 hPa 0,0 l/m 0,0 km/h (0 Bft) SW 225 3,3 C 16,1 C 0,0 km/h (0 Bft)
22.03.2014 09:30 11,3 C 62 % 1009,3 hPa 0,0 l/m 0,0 km/h (0 Bft) SW 225 4,3 C 16,1 C 0,0 km/h (0 Bft)
22.03.2014 09:35 11,2 C 61 % 1009,3 hPa 0,0 l/m 0,0 km/h (0 Bft) SW 225 4,0 C 16,1 C 0,0 km/h (0 Bft)
22.03.2014 09:40 11,6 C 60 % 1009,3 hPa 0,0 l/m 0,0 km/h (0 Bft) SW 225 4,1 C 16,1 C 0,0 km/h (0 Bft)
22.03.2014 09:45 11,9 C 59 % 1009,1 hPa 0,0 l/m 0,0 km/h (0 Bft) SW 225 4,1 C 16,1 C 0,0 km/h (0 Bft)
22.03.2014 09:50 11,9 C 58 % 1009,1 hPa 0,0 l/m 0,0 km/h (0 Bft) SW 225 3,9 C 16,1 C 0,0 km/h (0 Bft)
22.03.2014 09:55 11,8 C 58 % 1009,1 hPa 0,0 l/m 0,0 km/h (0 Bft) SW 225 3,8 C 16,1 C 0,0 km/h (0 Bft)
22.03.2014 10:00 12,1 C 56 % 1009,1 hPa 0,0 l/m 0,0 km/h (0 Bft) SW 225 3,6 C 16,1 C 0,0 km/h (0 Bft)
22.03.2014 10:05 12,2 C 56 % 1009,2 hPa 0,0 l/m 0,0 km/h (0 Bft) SW 225 3,7 C 16,1 C 0,0 km/h (0 Bft)
22.03.2014 10:10 12,6 C 57 % 1009,2 hPa 0,0 l/m 0,0 km/h (0 Bft) SW 225 4,3 C 16,1 C 0,0 km/h (0 Bft)
22.03.2014 10:15 12,8 C 57 % 1009,2 hPa 0,0 l/m 0,0 km/h (0 Bft) SW 225 4,5 C 16,1 C 0,0 km/h (0 Bft)
22.03.2014 10:20 14,6 C 49 % 1009,2 hPa 0,0 l/m 0,0 km/h (0 Bft) SW 225 4,0 C 16,1 C 0,0 km/h (0 Bft)
22.03.2014 10:25 15,7 C 45 % 1009,1 hPa 0,0 l/m 0,0 km/h (0 Bft) SW 225 3,8 C 16,1 C 0,0 km/h (0 Bft)
22.03.2014 10:30 16,2 C 43 % 1009,1 hPa 0,0 l/m 0,0 km/h (0 Bft) SW 225 3,6 C 16,1 C 0,0 km/h (0 Bft)
22.03.2014 10:35 16,5 C 40 % 1009,1 hPa 0,0 l/m 0,0 km/h (0 Bft) SW 225 2,9 C 16,1 C 0,0 km/h (0 Bft)
22.03.2014 10:40 17,3 C 40 % 1009,1 hPa 0,0 l/m 0,0 km/h (0 Bft) SW 225 3,6 C 16,1 C 0,0 km/h (0 Bft)
22.03.2014 10:45 18,2 C 38 % 1008,7 hPa 0,0 l/m 0,0 km/h (0 Bft) SW 225 3,7 C 16,1 C 0,0 km/h (0 Bft)
22.03.2014 10:50 19,6 C 38 % 1008,7 hPa 0,0 l/m 0,0 km/h (0 Bft) SW 225 4,9 C 16,1 C 0,0 km/h (0 Bft)
22.03.2014 10:55 18,7 C 36 % 1008,7 hPa 0,0 l/m 0,0 km/h (0 Bft) SW 225 3,3 C 16,1 C 0,0 km/h (0 Bft)
22.03.2014 11:00 18,3 C 35 % 1008,7 hPa 0,0 l/m 0,0 km/h (0 Bft) SW 225 2,6 C 16,1 C 0,0 km/h (0 Bft)
22.03.2014 11:05 18,5 C 36 % 1009,1 hPa 0,0 l/m 0,0 km/h (0 Bft) SW 225 3,2 C 16,1 C 0,0 km/h (0 Bft)
22.03.2014 11:10 18,1 C 37 % 1009,1 hPa 0,0 l/m 0,0 km/h (0 Bft) SW 225 3,2 C 16,1 C 0,0 km/h (0 Bft)
22.03.2014 11:15 18,1 C 36 % 1009,1 hPa 0,0 l/m 0,0 km/h (0 Bft) SW 225 2,8 C 16,1 C 0,0 km/h (0 Bft)
22.03.2014 11:20 18,2 C 37 % 1009,1 hPa 0,0 l/m 0,0 km/h (0 Bft) SW 225 3,3 C 16,1 C 0,0 km/h (0 Bft)
22.03.2014 11:25 17,7 C 36 % 1009,1 hPa 0,0 l/m 0,0 km/h (0 Bft) SW 225 2,4 C 16,1 C 0,0 km/h (0 Bft)
22.03.2014 11:30 18,0 C 37 % 1009,1 hPa 0,0 l/m 0,0 km/h (0 Bft) SW 225 3,1 C 16,1 C 0,0 km/h (0 Bft)
22.03.2014 11:35 18,5 C 35 % 1009,1 hPa 0,0 l/m 0,0 km/h (0 Bft) SW 225 2,8 C 16,1 C 0,0 km/h (0 Bft)
22.03.2014 11:40 17,7 C 34 % 1009,1 hPa 0,0 l/m 0,0 km/h (0 Bft) SW 225 1,6 C 16,1 C 0,0 km/h (0 Bft)
22.03.2014 11:45 17,4 C 36 % 1009,0 hPa 0,0 l/m 0,0 km/h (0 Bft) SW 225 2,2 C 16,1 C 0,0 km/h (0 Bft)
22.03.2014 11:50 16,8 C 37 % 1009,0 hPa 0,0 l/m 0,0 km/h (0 Bft) SW 225 2,0 C 16,1 C 0,0 km/h (0 Bft)
22.03.2014 11:53 16,5 C 38 % 1009,0 hPa 0,0 l/m 0,0 km/h (0 Bft) SW 225 2,1 C 16,1 C 0,0 km/h (0 Bft)
22.03.2014 11:55 16,5 C 38 % 1009,0 hPa 0,0 l/m 0,0 km/h (0 Bft) SW 225 2,1 C 16,1 C 0,0 km/h (0 Bft)
22.03.2014 12:00 16,3 C 39 % 1009,0 hPa 0,0 l/m 0,0 km/h (0 Bft) SW 225 2,3 C 16,1 C 0,0 km/h (0 Bft)
22.03.2014 12:05 16,6 C 39 % 1009,0 hPa 0,0 l/m 0,0 km/h (0 Bft) SW 225 2,6 C 16,1 C 0,0 km/h (0 Bft)
22.03.2014 12:10 16,7 C 40 % 1009,0 hPa 0,0 l/m 0,0 km/h (0 Bft) SW 225 3,0 C 16,1 C 0,0 km/h (0 Bft)
22.03.2014 12:15 15,9 C 38 % 1009,0 hPa 0,0 l/m 0,0 km/h (0 Bft) SW 225 1,6 C 16,1 C 0,0 km/h (0 Bft)
22.03.2014 12:20 15,7 C 41 % 1009,0 hPa 0,0 l/m 0,0 km/h (0 Bft) SW 225 2,5 C 16,1 C 0,0 km/h (0 Bft)
22.03.2014 12:25 15,7 C 43 % 1008,9 hPa 0,0 l/m 0,0 km/h (0 Bft) SW 225 3,2 C 16,1 C 0,0 km/h (0 Bft)
22.03.2014 12:30 15,5 C 43 % 1008,9 hPa 0,0 l/m 0,0 km/h (0 Bft) SW 225 3,0 C 16,1 C 0,0 km/h (0 Bft)
22.03.2014 12:35 15,6 C 44 % 1008,9 hPa 0,0 l/m 0,0 km/h (0 Bft) SW 225 3,4 C 16,1 C 0,0 km/h (0 Bft)
22.03.2014 12:40 15,6 C 44 % 1008,9 hPa 0,0 l/m 0,0 km/h (0 Bft) SW 225 3,4 C 16,1 C 0,0 km/h (0 Bft)
22.03.2014 12:45 15,2 C 45 % 1009,1 hPa 0,0 l/m 0,0 km/h (0 Bft) SW 225 3,4 C 16,1 C 0,0 km/h (0 Bft)
22.03.2014 12:50 15,2 C 46 % 1009,1 hPa 0,0 l/m 0,0 km/h (0 Bft) SW 225 3,7 C 16,1 C 0,0 km/h (0 Bft)
22.03.2014 12:55 15,7 C 46 % 1009,1 hPa 0,0 l/m 0,0 km/h (0 Bft) SW 225 4,1 C 16,1 C 0,0 km/h (0 Bft)
22.03.2014 13:00 16,1 C 47 % 1009,1 hPa 0,0 l/m 0,0 km/h (0 Bft) SW 225 4,8 C 16,1 C 0,0 km/h (0 Bft)
22.03.2014 13:05 16,3 C 47 % 1008,8 hPa 0,0 l/m 0,0 km/h (0 Bft) SW 225 5,0 C 16,1 C 0,0 km/h (0 Bft)
22.03.2014 13:10 15,0 C 51 % 1008,8 hPa 0,0 l/m 0,0 km/h (0 Bft) SW 225 4,9 C 16,1 C 0,0 km/h (0 Bft)
22.03.2014 13:15 14,5 C 54 % 1008,8 hPa 0,0 l/m 0,0 km/h (0 Bft) SW 225 5,3 C 16,1 C 0,0 km/h (0 Bft)
22.03.2014 13:20 14,0 C 55 % 1008,8 hPa 0,0 l/m 0,0 km/h (0 Bft) SW 225 5,1 C 16,1 C 0,0 km/h (0 Bft)
22.03.2014 13:25 14,3 C 56 % 1008,6 hPa 0,0 l/m 0,0 km/h (0 Bft) SW 225 5,6 C 16,1 C 0,0 km/h (0 Bft)
22.03.2014 13:30 13,8 C 56 % 1008,6 hPa 0,0 l/m 0,0 km/h (0 Bft) SW 225 5,2 C 16,1 C 0,0 km/h (0 Bft)
22.03.2014 13:35 13,6 C 56 % 1008,6 hPa 0,0 l/m 0,0 km/h (0 Bft) SW 225 5,0 C 16,1 C 0,0 km/h (0 Bft)
22.03.2014 13:40 13,8 C 56 % 1008,6 hPa 0,0 l/m 0,0 km/h (0 Bft) SW 225 5,2 C 16,1 C 0,0 km/h (0 Bft)
22.03.2014 13:45 13,7 C 55 % 1008,9 hPa 0,0 l/m 0,0 km/h (0 Bft) SW 225 4,8 C 16,1 C 0,0 km/h (0 Bft)
22.03.2014 13:50 13,4 C 56 % 1008,9 hPa 0,0 l/m 0,0 km/h (0 Bft) SW 225 4,8 C 16,1 C 0,0 km/h (0 Bft)
22.03.2014 13:55 13,2 C 55 % 1008,9 hPa 0,0 l/m 0,0 km/h (0 Bft) SW 225 4,4 C 16,1 C 0,0 km/h (0 Bft)
22.03.2014 14:00 13,2 C 56 % 1008,9 hPa 0,0 l/m 0,0 km/h (0 Bft) SW 225 4,6 C 16,1 C 0,0 km/h (0 Bft)
22.03.2014 14:05 13,1 C 56 % 1008,2 hPa 0,0 l/m 0,0 km/h (0 Bft) SW 225 4,5 C 16,1 C 0,0 km/h (0 Bft)
22.03.2014 14:10 12,8 C 56 % 1008,2 hPa 0,0 l/m 0,0 km/h (0 Bft) SW 225 4,2 C 16,1 C 0,0 km/h (0 Bft)
22.03.2014 14:15 12,7 C 57 % 1008,2 hPa 0,0 l/m 0,0 km/h (0 Bft) SW 225 4,4 C 16,1 C 0,0 km/h (0 Bft)
22.03.2014 14:20 12,6 C 57 % 1008,2 hPa 0,0 l/m 0,0 km/h (0 Bft) SW 225 4,3 C 16,1 C 0,0 km/h (0 Bft)
22.03.2014 14:25 12,6 C 58 % 1007,8 hPa 0,0 l/m 0,0 km/h (0 Bft) SW 225 4,6 C 16,1 C 0,0 km/h (0 Bft)
22.03.2014 14:30 12,7 C 58 % 1007,8 hPa 0,0 l/m 0,0 km/h (0 Bft) SW 225 4,7 C 16,1 C 0,0 km/h (0 Bft)
22.03.2014 14:35 12,6 C 58 % 1007,8 hPa 0,0 l/m 0,0 km/h (0 Bft) SW 225 4,6 C 16,1 C 0,0 km/h (0 Bft)
22.03.2014 14:40 12,5 C 58 % 1007,8 hPa 0,0 l/m 0,0 km/h (0 Bft) SW 225 4,5 C 16,1 C 0,0 km/h (0 Bft)
22.03.2014 14:45 12,5 C 58 % 1007,4 hPa 0,0 l/m 0,0 km/h (0 Bft) SW 225 4,5 C 16,1 C 0,0 km/h (0 Bft)
22.03.2014 14:50 12,6 C 59 % 1007,4 hPa 0,0 l/m 0,0 km/h (0 Bft) SW 225 4,8 C 16,1 C 0,0 km/h (0 Bft)
22.03.2014 14:55 12,7 C 59 % 1007,4 hPa 0,0 l/m 0,0 km/h (0 Bft) SW 225 4,9 C 16,1 C 0,0 km/h (0 Bft)
22.03.2014 15:00 12,5 C 59 % 1007,4 hPa 0,0 l/m 0,0 km/h (0 Bft) SW 225 4,7 C 16,1 C 0,0 km/h (0 Bft)
22.03.2014 15:05 12,6 C 60 % 1006,9 hPa 0,0 l/m 0,0 km/h (0 Bft) SW 225 5,0 C 16,1 C 0,0 km/h (0 Bft)
22.03.2014 15:10 11,8 C 61 % 1006,9 hPa 0,0 l/m 0,0 km/h (0 Bft) SW 225 4,5 C 16,1 C 0,0 km/h (0 Bft)
22.03.2014 15:15 11,3 C 62 % 1006,9 hPa 0,0 l/m 0,0 km/h (0 Bft) SW 225 4,3 C 16,1 C 0,0 km/h (0 Bft)
22.03.2014 15:20 10,9 C 64 % 1006,9 hPa 0,0 l/m 0,0 km/h (0 Bft) SW 225 4,4 C 16,1 C 0,0 km/h (0 Bft)
22.03.2014 15:25 10,8 C 65 % 1006,9 hPa 0,0 l/m 0,0 km/h (0 Bft) SW 225 4,5 C 16,1 C 0,0 km/h (0 Bft)
22.03.2014 15:30 10,7 C 65 % 1006,9 hPa 0,0 l/m 0,0 km/h (0 Bft) SW 225 4,4 C 16,1 C 0,0 km/h (0 Bft)
22.03.2014 15:35 10,4 C 66 % 1006,9 hPa 0,0 l/m 0,0 km/h (0 Bft) SW 225 4,3 C 16,1 C 0,0 km/h (0 Bft)
22.03.2014 15:40 10,3 C 66 % 1006,9 hPa 0,0 l/m 0,0 km/h (0 Bft) SW 225 4,2 C 16,1 C 0,0 km/h (0 Bft)
22.03.2014 15:45 10,3 C 67 % 1006,8 hPa 0,0 l/m 0,0 km/h (0 Bft) SW 225 4,4 C 16,1 C 0,0 km/h (0 Bft)
22.03.2014 15:50 10,0 C 67 % 1006,8 hPa 0,0 l/m 0,0 km/h (0 Bft) SW 225 4,2 C 16,1 C 0,0 km/h (0 Bft)
22.03.2014 15:55 9,7 C 68 % 1006,8 hPa 0,0 l/m 0,0 km/h (0 Bft) SW 225 4,1 C 16,1 C 0,0 km/h (0 Bft)
22.03.2014 16:00 9,6 C 69 % 1006,8 hPa 0,0 l/m 0,0 km/h (0 Bft) SW 225 4,2 C 16,1 C 0,0 km/h (0 Bft)
22.03.2014 16:05 9,5 C 69 % 1007,1 hPa 0,0 l/m 0,0 km/h (0 Bft) SW 225 4,1 C 16,1 C 0,0 km/h (0 Bft)
22.03.2014 16:10 9,3 C 69 % 1007,1 hPa 0,0 l/m 0,0 km/h (0 Bft) SW 225 3,9 C 16,1 C 0,0 km/h (0 Bft)
22.03.2014 16:15 9,1 C 69 % 1007,1 hPa 0,0 l/m 0,0 km/h (0 Bft) SW 225 3,7 C 16,1 C 0,0 km/h (0 Bft)
22.03.2014 16:20 9,1 C 69 % 1007,1 hPa 0,0 l/m 0,0 km/h (0 Bft) SW 225 3,7 C 16,1 C 0,0 km/h (0 Bft)
22.03.2014 16:25 9,0 C 70 % 1007,1 hPa 0,0 l/m 0,0 km/h (0 Bft) SW 225 3,8 C 16,1 C 0,0 km/h (0 Bft)
22.03.2014 16:30 8,9 C 70 % 1007,1 hPa 0,0 l/m 0,0 km/h (0 Bft) SW 225 3,7 C 16,1 C 0,0 km/h (0 Bft)
22.03.2014 16:35 8,9 C 70 % 1007,1 hPa 0,0 l/m 0,0 km/h (0 Bft) SW 225 3,7 C 16,1 C 0,0 km/h (0 Bft)
22.03.2014 16:40 8,6 C 71 % 1007,1 hPa 0,0 l/m 0,0 km/h (0 Bft) SW 225 3,6 C 16,1 C 0,0 km/h (0 Bft)
22.03.2014 16:45 8,5 C 72 % 1007,1 hPa 0,0 l/m 0,0 km/h (0 Bft) SW 225 3,7 C 16,1 C 0,0 km/h (0 Bft)
22.03.2014 16:50 8,3 C 73 % 1007,1 hPa 0,0 l/m 0,0 km/h (0 Bft) SW 225 3,8 C 16,1 C 0,0 km/h (0 Bft)
22.03.2014 16:53 8,2 C 73 % 1007,1 hPa 0,0 l/m 0,0 km/h (0 Bft) SW 225 3,7 C 16,1 C 0,0 km/h (0 Bft)
22.03.2014 16:55 8,2 C 73 % 1007,1 hPa 0,0 l/m 0,0 km/h (0 Bft) SW 225 3,7 C 16,1 C 0,0 km/h (0 Bft)
22.03.2014 17:00 8,1 C 75 % 1007,1 hPa 0,0 l/m 0,0 km/h (0 Bft) SW 225 3,9 C 16,1 C 0,0 km/h (0 Bft)
22.03.2014 17:05 8,0 C 75 % 1007,2 hPa 0,0 l/m 0,0 km/h (0 Bft) SW 225 3,8 C 16,1 C 0,0 km/h (0 Bft)
22.03.2014 17:10 7,8 C 76 % 1007,2 hPa 0,0 l/m 0,0 km/h (0 Bft) SW 225 3,8 C 16,1 C 0,0 km/h (0 Bft)
22.03.2014 17:15 7,8 C 78 % 1007,2 hPa 0,0 l/m 0,0 km/h (0 Bft) SW 225 4,2 C 16,1 C 0,0 km/h (0 Bft)
22.03.2014 17:20 7,6 C 78 % 1007,2 hPa 0,0 l/m 0,0 km/h (0 Bft) SW 225 4,0 C 16,1 C 0,0 km/h (0 Bft)
22.03.2014 17:25 7,5 C 79 % 1007,1 hPa 0,0 l/m 0,0 km/h (0 Bft) SW 225 4,1 C 16,1 C 0,0 km/h (0 Bft)
22.03.2014 17:30 7,3 C 80 % 1007,1 hPa 0,0 l/m 0,0 km/h (0 Bft) SW 225 4,1 C 16,1 C 0,0 km/h (0 Bft)
22.03.2014 17:35 7,2 C 80 % 1007,1 hPa 0,0 l/m 0,0 km/h (0 Bft) SW 225 4,0 C 16,1 C 0,0 km/h (0 Bft)
22.03.2014 17:40 7,1 C 81 % 1007,1 hPa 0,0 l/m 0,0 km/h (0 Bft) SW 225 4,1 C 16,1 C 0,0 km/h (0 Bft)
22.03.2014 17:45 7,0 C 85 % 1007,6 hPa 0,0 l/m 0,0 km/h (0 Bft) SW 225 4,7 C 16,1 C 0,0 km/h (0 Bft)
22.03.2014 17:50 6,9 C 87 % 1007,6 hPa 0,0 l/m 0,0 km/h (0 Bft) SW 225 4,9 C 16,1 C 0,0 km/h (0 Bft)
22.03.2014 17:55 6,8 C 88 % 1007,6 hPa 0,0 l/m 0,0 km/h (0 Bft) SW 225 5,0 C 16,1 C 0,0 km/h (0 Bft)
22.03.2014 18:00 6,7 C 89 % 1007,6 hPa 0,0 l/m 0,0 km/h (0 Bft) SW 225 5,0 C 16,1 C 0,0 km/h (0 Bft)
22.03.2014 18:05 6,6 C 89 % 1007,7 hPa 0,0 l/m 0,0 km/h (0 Bft) SW 225 4,9 C 16,1 C 0,0 km/h (0 Bft)
22.03.2014 18:10 6,4 C 90 % 1007,7 hPa 0,0 l/m 0,0 km/h (0 Bft) SW 225 4,9 C 16,1 C 0,0 km/h (0 Bft)
22.03.2014 18:15 6,3 C 90 % 1007,7 hPa 0,0 l/m 0,0 km/h (0 Bft) SW 225 4,8 C 16,1 C 0,0 km/h (0 Bft)
22.03.2014 18:20 6,0 C 89 % 1007,7 hPa 0,0 l/m 0,0 km/h (0 Bft) SW 225 4,3 C 16,1 C 0,0 km/h (0 Bft)
22.03.2014 18:25 5,8 C 90 % 1007,6 hPa 0,0 l/m 0,0 km/h (0 Bft) SW 225 4,3 C 16,1 C 0,0 km/h (0 Bft)
22.03.2014 18:30 5,7 C 91 % 1007,6 hPa 0,0 l/m 0,0 km/h (0 Bft) SW 225 4,3 C 16,1 C 0,0 km/h (0 Bft)
22.03.2014 18:35 5,3 C 90 % 1007,6 hPa 0,0 l/m 0,0 km/h (0 Bft) SW 225 3,8 C 16,1 C 0,0 km/h (0 Bft)
22.03.2014 18:40 5,2 C 91 % 1007,6 hPa 0,0 l/m 0,0 km/h (0 Bft) SW 225 3,9 C 16,1 C 0,0 km/h (0 Bft)
22.03.2014 18:45 5,1 C 91 % 1007,8 hPa 0,0 l/m 0,0 km/h (0 Bft) SW 225 3,8 C 16,1 C 0,0 km/h (0 Bft)
22.03.2014 18:50 4,9 C 91 % 1007,8 hPa 0,0 l/m 0,0 km/h (0 Bft) SW 225 3,6 C 16,1 C 0,0 km/h (0 Bft)
22.03.2014 18:55 4,8 C 92 % 1007,8 hPa 0,0 l/m 0,0 km/h (0 Bft) SW 225 3,6 C 16,1 C 0,0 km/h (0 Bft)
22.03.2014 19:00 4,8 C 92 % 1007,8 hPa 0,0 l/m 0,0 km/h (0 Bft) SW 225 3,6 C 16,1 C 0,0 km/h (0 Bft)
22.03.2014 19:05 4,7 C 92 % 1007,6 hPa 0,0 l/m 0,0 km/h (0 Bft) SW 225 3,5 C 16,1 C 0,0 km/h (0 Bft)
22.03.2014 19:10 4,7 C 92 % 1007,6 hPa 0,0 l/m 0,0 km/h (0 Bft) SW 225 3,5 C 16,1 C 0,0 km/h (0 Bft)
22.03.2014 19:15 4,6 C 92 % 1007,6 hPa 0,0 l/m 0,0 km/h (0 Bft) SW 225 3,4 C 16,1 C 0,0 km/h (0 Bft)
22.03.2014 19:20 4,6 C 93 % 1007,6 hPa 0,0 l/m 0,0 km/h (0 Bft) SW 225 3,6 C 16,1 C 0,0 km/h (0 Bft)
22.03.2014 19:25 4,6 C 93 % 1007,7 hPa 0,0 l/m 0,0 km/h (0 Bft) SW 225 3,6 C 16,1 C 0,0 km/h (0 Bft)
22.03.2014 19:30 4,6 C 93 % 1007,7 hPa 0,0 l/m 0,0 km/h (0 Bft) SW 225 3,6 C 16,1 C 0,0 km/h (0 Bft)
22.03.2014 19:35 4,5 C 93 % 1007,7 hPa 0,0 l/m 0,0 km/h (0 Bft) SW 225 3,5 C 16,1 C 0,0 km/h (0 Bft)
22.03.2014 19:40 4,5 C 93 % 1007,7 hPa 0,0 l/m 0,0 km/h (0 Bft) SW 225 3,5 C 16,1 C 0,0 km/h (0 Bft)
22.03.2014 19:45 4,4 C 93 % 1008,1 hPa 0,0 l/m 0,0 km/h (0 Bft) SW 225 3,4 C 16,1 C 0,0 km/h (0 Bft)
22.03.2014 19:50 4,3 C 93 % 1008,1 hPa 0,0 l/m 0,0 km/h (0 Bft) SW 225 3,3 C 16,1 C 0,0 km/h (0 Bft)
22.03.2014 19:55 4,3 C 93 % 1008,1 hPa 0,0 l/m 0,0 km/h (0 Bft) SW 225 3,3 C 16,1 C 0,0 km/h (0 Bft)
22.03.2014 20:00 4,3 C 93 % 1008,1 hPa 0,0 l/m 0,0 km/h (0 Bft) SW 225 3,3 C 16,1 C 0,0 km/h (0 Bft)
22.03.2014 20:05 4,2 C 93 % 1007,8 hPa 0,0 l/m 0,0 km/h (0 Bft) SW 225 3,2 C 16,1 C 0,0 km/h (0 Bft)
22.03.2014 20:10 4,1 C 93 % 1007,8 hPa 0,0 l/m 0,0 km/h (0 Bft) SW 225 3,1 C 16,1 C 0,0 km/h (0 Bft)
22.03.2014 20:15 4,0 C 93 % 1007,8 hPa 0,0 l/m 0,0 km/h (0 Bft) SW 225 3,0 C 16,1 C 0,0 km/h (0 Bft)
22.03.2014 20:20 3,9 C 94 % 1007,8 hPa 0,0 l/m 0,0 km/h (0 Bft) SW 225 3,0 C 16,1 C 0,0 km/h (0 Bft)
22.03.2014 20:25 3,9 C 93 % 1007,9 hPa 0,0 l/m 0,0 km/h (0 Bft) SW 225 2,9 C 16,1 C 0,0 km/h (0 Bft)
22.03.2014 20:30 3,8 C 94 % 1007,9 hPa 0,0 l/m 0,0 km/h (0 Bft) SW 225 2,9 C 16,1 C 0,0 km/h (0 Bft)
22.03.2014 20:35 3,7 C 94 % 1007,9 hPa 0,0 l/m 0,0 km/h (0 Bft) SW 225 2,8 C 16,1 C 0,0 km/h (0 Bft)
22.03.2014 20:40 3,7 C 94 % 1007,9 hPa 0,0 l/m 0,0 km/h (0 Bft) SW 225 2,8 C 16,1 C 0,0 km/h (0 Bft)
22.03.2014 20:45 3,6 C 94 % 1008,2 hPa 0,0 l/m 0,0 km/h (0 Bft) SW 225 2,7 C 16,1 C 0,0 km/h (0 Bft)
22.03.2014 20:50 3,6 C 94 % 1008,2 hPa 0,0 l/m 0,0 km/h (0 Bft) SW 225 2,7 C 16,1 C 0,0 km/h (0 Bft)
22.03.2014 20:55 3,6 C 94 % 1008,2 hPa 0,0 l/m 0,0 km/h (0 Bft) SW 225 2,7 C 16,1 C 0,0 km/h (0 Bft)
22.03.2014 21:00 3,5 C 94 % 1008,2 hPa 0,0 l/m 0,0 km/h (0 Bft) SW 225 2,6 C 16,1 C 0,0 km/h (0 Bft)
22.03.2014 21:05 3,5 C 94 % 1008,3 hPa 0,0 l/m 0,0 km/h (0 Bft) SW 225 2,6 C 16,1 C 0,0 km/h (0 Bft)
22.03.2014 21:10 3,5 C 94 % 1008,3 hPa 0,0 l/m 0,0 km/h (0 Bft) SW 225 2,6 C 16,1 C 0,0 km/h (0 Bft)
22.03.2014 21:15 3,5 C 94 % 1008,3 hPa 0,0 l/m 0,0 km/h (0 Bft) SW 225 2,6 C 16,1 C 0,0 km/h (0 Bft)
22.03.2014 21:20 3,5 C 94 % 1008,3 hPa 0,0 l/m 0,0 km/h (0 Bft) SW 225 2,6 C 16,1 C 0,0 km/h (0 Bft)
22.03.2014 21:25 3,5 C 94 % 1008,4 hPa 0,0 l/m 0,0 km/h (0 Bft) SW 225 2,6 C 16,1 C 0,0 km/h (0 Bft)
22.03.2014 21:30 3,5 C 95 % 1008,4 hPa 0,0 l/m 0,0 km/h (0 Bft) SW 225 2,8 C 16,1 C 0,0 km/h (0 Bft)
22.03.2014 21:35 3,5 C 95 % 1008,4 hPa 0,0 l/m 0,0 km/h (0 Bft) SW 225 2,8 C 16,1 C 0,0 km/h (0 Bft)
22.03.2014 21:40 3,5 C 95 % 1008,4 hPa 0,0 l/m 0,0 km/h (0 Bft) SW 225 2,8 C 16,1 C 0,0 km/h (0 Bft)
22.03.2014 21:45 3,5 C 95 % 1008,2 hPa 0,0 l/m 0,0 km/h (0 Bft) SW 225 2,8 C 16,1 C 0,0 km/h (0 Bft)
22.03.2014 21:50 3,5 C 95 % 1008,2 hPa 0,0 l/m 0,0 km/h (0 Bft) SW 225 2,8 C 16,1 C 0,0 km/h (0 Bft)
22.03.2014 21:53 3,5 C 95 % 1008,2 hPa 0,0 l/m 0,0 km/h (0 Bft) SW 225 2,8 C 16,1 C 0,0 km/h (0 Bft)
22.03.2014 21:55 3,5 C 95 % 1008,2 hPa 0,0 l/m 0,0 km/h (0 Bft) SW 225 2,8 C 16,1 C 0,0 km/h (0 Bft)
22.03.2014 22:00 3,5 C 95 % 1008,2 hPa 0,0 l/m 0,0 km/h (0 Bft) SW 225 2,8 C 16,1 C 0,0 km/h (0 Bft)
22.03.2014 22:05 3,5 C 95 % 1008,6 hPa 0,0 l/m 0,0 km/h (0 Bft) SW 225 2,8 C 16,1 C 0,0 km/h (0 Bft)
22.03.2014 22:10 3,5 C 95 % 1008,6 hPa 0,0 l/m 0,0 km/h (0 Bft) SW 225 2,8 C 16,1 C 0,0 km/h (0 Bft)
22.03.2014 22:15 3,5 C 95 % 1008,6 hPa 0,0 l/m 0,0 km/h (0 Bft) SW 225 2,8 C 16,1 C 0,0 km/h (0 Bft)
22.03.2014 22:20 3,5 C 95 % 1008,6 hPa 0,0 l/m 0,0 km/h (0 Bft) SW 225 2,8 C 16,1 C 0,0 km/h (0 Bft)
22.03.2014 22:25 3,4 C 95 % 1008,8 hPa 0,0 l/m 0,0 km/h (0 Bft) SW 225 2,7 C 16,1 C 0,0 km/h (0 Bft)
22.03.2014 22:30 3,4 C 95 % 1008,8 hPa 0,0 l/m 0,0 km/h (0 Bft) SW 225 2,7 C 16,1 C 0,0 km/h (0 Bft)
22.03.2014 22:35 3,4 C 95 % 1008,8 hPa 0,0 l/m 0,0 km/h (0 Bft) SW 225 2,7 C 16,1 C 0,0 km/h (0 Bft)
22.03.2014 22:40 3,3 C 95 % 1008,8 hPa 0,0 l/m 0,0 km/h (0 Bft) SW 225 2,6 C 16,1 C 0,0 km/h (0 Bft)
22.03.2014 22:45 3,2 C 95 % 1008,8 hPa 0,0 l/m 0,0 km/h (0 Bft) SW 225 2,5 C 16,1 C 0,0 km/h (0 Bft)
22.03.2014 22:50 3,2 C 95 % 1008,8 hPa 0,0 l/m 0,0 km/h (0 Bft) SW 225 2,5 C 16,1 C 0,0 km/h (0 Bft)
22.03.2014 22:55 3,2 C 95 % 1008,8 hPa 0,0 l/m 0,0 km/h (0 Bft) SW 225 2,5 C 16,1 C 0,0 km/h (0 Bft)
22.03.2014 23:00 3,2 C 95 % 1008,8 hPa 0,0 l/m 0,0 km/h (0 Bft) SW 225 2,5 C 16,1 C 0,0 km/h (0 Bft)
22.03.2014 23:05 3,2 C 95 % 1008,6 hPa 0,0 l/m 0,0 km/h (0 Bft) SW 225 2,5 C 16,1 C 0,0 km/h (0 Bft)
22.03.2014 23:10 3,2 C 95 % 1008,6 hPa 0,0 l/m 0,0 km/h (0 Bft) SW 225 2,5 C 16,1 C 0,0 km/h (0 Bft)
22.03.2014 23:15 3,2 C 95 % 1008,6 hPa 0,0 l/m 0,0 km/h (0 Bft) SW 225 2,5 C 16,1 C 0,0 km/h (0 Bft)
22.03.2014 23:20 3,2 C 95 % 1008,6 hPa 0,0 l/m 0,0 km/h (0 Bft) SW 225 2,5 C 16,1 C 0,0 km/h (0 Bft)
22.03.2014 23:25 3,2 C 95 % 1008,4 hPa 0,0 l/m 0,0 km/h (0 Bft) SW 225 2,5 C 16,1 C 0,0 km/h (0 Bft)
22.03.2014 23:30 3,1 C 95 % 1008,4 hPa 0,0 l/m 0,0 km/h (0 Bft) SW 225 2,4 C 16,1 C 0,0 km/h (0 Bft)
22.03.2014 23:35 3,1 C 95 % 1008,4 hPa 0,0 l/m 0,0 km/h (0 Bft) SW 225 2,4 C 16,1 C 0,0 km/h (0 Bft)
22.03.2014 23:40 3,1 C 96 % 1008,4 hPa 0,0 l/m 0,0 km/h (0 Bft) SW 225 2,5 C 16,1 C 0,0 km/h (0 Bft)
22.03.2014 23:45 3,1 C 96 % 1008,2 hPa 0,0 l/m 0,0 km/h (0 Bft) SW 225 2,5 C 16,1 C 0,0 km/h (0 Bft)
22.03.2014 23:50 3,1 C 96 % 1008,2 hPa 0,0 l/m 0,0 km/h (0 Bft) SW 225 2,5 C 16,1 C 0,0 km/h (0 Bft)
22.03.2014 23:55 3,1 C 96 % 1008,2 hPa 0,0 l/m 0,0 km/h (0 Bft) SW 225 2,5 C 16,1 C 0,0 km/h (0 Bft)
_ Min-Zeit 05:00 11:40 16:00 - 23:55 - - 03:55 23:55 23:55
Minimum _ 1,0 C 34 % 1006,8 hPa - 0,0 km/h (0 Bft) - - -2,1 C 16,1 C 0,0 km/h (0 Bft)
_ Max-Zeit 10:50 23:55 00:20 23:55 23:55 - - 13:25 23:55 23:55
Maximum _ 19,6 C 96 % 1014,1 hPa 0,0 l/m 0,0 km/h
SW (0 Bft)
- - 5,6 C 16,1 C 0,0 km/h
SW (0 Bft)
Durchschnitt _ 7,0 C 74 % 1009,5 hPa #0,0 l/m 0,0 km/h (0 Bft) - - - 2,2 C 16,1 C 0,0 km/h (0 Bft)